• Em Portugal
  • Lista de países
  • Para 7 dias
  • Temperatura da água
  • Mapas de satélite
  • Mapa do tempo
  • Widgets de tempo
  • user-avatar
    Iniciar Sessão

    Previsão horária em Utena

    Hoje, 23 Maio, Quarta-feira

    Tempo Temperatura Precipitação Vento Pressão Humidade
    00:00 +10°C° 0 mm 2 m/s 755 mmHg 94%
    01:00 +10°C° 0 mm 2 m/s 755 mmHg 94%
    02:00 +10°C° 0 mm 2 m/s 755 mmHg 95%
    03:00 +10°C° 0,1 mm 2 m/s 755 mmHg 95%
    04:00 +10°C° 0,1 mm 2 m/s 755 mmHg 95%
    05:00 +10°C° 0,1 mm 2 m/s 755 mmHg 94%
    06:00 +13°C° 0,4 mm 1 m/s 755 mmHg 90%
    07:00 +14°C° 0,4 mm 1 m/s 755 mmHg 86%
    08:00 +16°C° 0 mm 2 m/s 755 mmHg 81%
    09:00 +17°C° 1,2 mm 2 m/s 755 mmHg 79%
    10:00 +17°C° 1,2 mm 2 m/s 755 mmHg 77%
    11:00 +18°C° 1,2 mm 3 m/s 755 mmHg 75%
    12:00 +19°C° 1,1 mm 3 m/s 755 mmHg 73%
    13:00 +19°C° 1,1 mm 3 m/s 755 mmHg 71%
    14:00 +19°C° 0 mm 2 m/s 756 mmHg 69%
    15:00 +20°C° 0,4 mm 2 m/s 756 mmHg 69%
    16:00 +20°C° 0,4 mm 2 m/s 756 mmHg 69%
    17:00 +20°C° 0,4 mm 3 m/s 756 mmHg 69%
    18:00 +18°C° 0,1 mm 2 m/s 756 mmHg 74%
    19:00 +17°C° 0,1 mm 2 m/s 756 mmHg 80%
    20:00 +16°C° 0,1 mm 2 m/s 757 mmHg 85%
    21:00 +15°C° 0 mm 2 m/s 757 mmHg 88%
    22:00 +14°C° 0 mm 2 m/s 757 mmHg 91%
    23:00 +13°C° 0 mm 2 m/s 757 mmHg 93%

    Amanhã, 24 Maio, Quinta-feira

    Tempo Temperatura Precipitação Vento Pressão Humidade
    00:00 +12°C° 0 mm 2 m/s 758 mmHg 94%
    01:00 +12°C° 0 mm 2 m/s 758 mmHg 94%
    02:00 +10°C° 0 mm 2 m/s 758 mmHg 94%
    03:00 +10°C° 0 mm 2 m/s 758 mmHg 93%
    04:00 +10°C° 0 mm 2 m/s 758 mmHg 92%
    05:00 +10°C° 0 mm 2 m/s 758 mmHg 92%
    06:00 +13°C° 0 mm 2 m/s 758 mmHg 86%
    07:00 +14°C° 0 mm 2 m/s 758 mmHg 81%
    08:00 +16°C° 0 mm 3 m/s 759 mmHg 75%
    09:00 +18°C° 0 mm 3 m/s 758 mmHg 68%
    10:00 +20°C° 0 mm 3 m/s 758 mmHg 62%
    11:00 +22°C° 0 mm 3 m/s 758 mmHg 56%
    12:00 +22°C° 0 mm 4 m/s 758 mmHg 53%
    13:00 +23°C° 0 mm 4 m/s 758 mmHg 50%
    14:00 +25°C° 0 mm 4 m/s 758 mmHg 48%
    15:00 +23°C° 0 mm 4 m/s 758 mmHg 52%
    16:00 +24°C° 0 mm 3 m/s 757 mmHg 57%
    17:00 +22°C° 0 mm 3 m/s 757 mmHg 61%
    18:00 +21°C° 0 mm 3 m/s 757 mmHg 66%
    19:00 +19°C° 0 mm 3 m/s 757 mmHg 71%
    20:00 +18°C° 0 mm 3 m/s 757 mmHg 76%
    21:00 +17°C° 0 mm 3 m/s 758 mmHg 79%
    22:00 +16°C° 0 mm 3 m/s 758 mmHg 82%
    23:00 +14°C° 0 mm 3 m/s 758 mmHg 85%

    Depois de amanhã, 25 Maio, Sexta-feira

    Tempo Temperatura Precipitação Vento Pressão Humidade
    00:00 +13°C° 0 mm 3 m/s 758 mmHg 87%
    01:00 +13°C° 0 mm 3 m/s 758 mmHg 88%
    02:00 +13°C° 0 mm 3 m/s 758 mmHg 89%
    03:00 +13°C° 0 mm 3 m/s 759 mmHg 89%
    04:00 +13°C° 0 mm 3 m/s 759 mmHg 89%
    05:00 +13°C° 0 mm 3 m/s 759 mmHg 89%
    06:00 +14°C° 0 mm 4 m/s 759 mmHg 84%
    07:00 +17°C° 0 mm 4 m/s 759 mmHg 78%
    08:00 +19°C° 0 mm 4 m/s 760 mmHg 73%
    09:00 +20°C° 0 mm 4 m/s 760 mmHg 67%
    10:00 +22°C° 0 mm 5 m/s 760 mmHg 61%
    11:00 +23°C° 0 mm 5 m/s 760 mmHg 55%
    12:00 +25°C° 0 mm 5 m/s 760 mmHg 54%
    13:00 +25°C° 0 mm 5 m/s 760 mmHg 53%
    14:00 +26°C° 0 mm 5 m/s 760 mmHg 52%
    15:00 +26°C° 0 mm 4 m/s 760 mmHg 54%
    16:00 +25°C° 0 mm 4 m/s 760 mmHg 55%
    17:00 +25°C° 0 mm 4 m/s 760 mmHg 57%
    18:00 +24°C° 0 mm 3 m/s 760 mmHg 64%
    19:00 +21°C° 0 mm 3 m/s 760 mmHg 70%
    20:00 +19°C° 0 mm 3 m/s 761 mmHg 77%
    21:00 +18°C° 0 mm 3 m/s 761 mmHg 78%
    22:00 +17°C° 0 mm 3 m/s 761 mmHg 79%
    23:00 +16°C° 0 mm 3 m/s 762 mmHg 80%

    26 Maio, Sábado

    Tempo Temperatura Precipitação Vento Pressão Humidade
    00:00 +14°C° 0 mm 3 m/s 762 mmHg 81%
    01:00 +13°C° 0 mm 3 m/s 762 mmHg 81%
    02:00 +12°C° 0 mm 3 m/s 763 mmHg 81%
    03:00 +12°C° 0 mm 3 m/s 763 mmHg 82%
    04:00 +12°C° 0 mm 3 m/s 763 mmHg 82%
    05:00 +11°C° 0 mm 3 m/s 763 mmHg 83%
    06:00 +13°C° 0 mm 3 m/s 763 mmHg 78%
    07:00 +16°C° 0 mm 3 m/s 764 mmHg 73%
    08:00 +17°C° 0 mm 4 m/s 764 mmHg 68%
    09:00 +19°C° 0 mm 4 m/s 764 mmHg 62%
    10:00 +20°C° 0 mm 4 m/s 764 mmHg 57%
    11:00 +21°C° 0 mm 4 m/s 764 mmHg 52%
    12:00 +22°C° 0 mm 4 m/s 763 mmHg 51%
    13:00 +22°C° 0 mm 4 m/s 763 mmHg 50%
    14:00 +23°C° 0 mm 4 m/s 763 mmHg 49%
    15:00 +23°C° 0 mm 4 m/s 763 mmHg 51%
    16:00 +23°C° 0 mm 4 m/s 763 mmHg 53%
    17:00 +22°C° 0 mm 4 m/s 762 mmHg 54%
    18:00 +21°C° 0 mm 3 m/s 762 mmHg 61%
    19:00 +19°C° 0 mm 3 m/s 762 mmHg 68%
    20:00 +18°C° 0 mm 2 m/s 762 mmHg 75%
    21:00 +16°C° 0 mm 2 m/s 763 mmHg 77%
    22:00 +15°C° 0 mm 2 m/s 763 mmHg 79%
    23:00 +14°C° 0 mm 2 m/s 763 mmHg 82%

    27 Maio, Domingo

    Tempo Temperatura Precipitação Vento Pressão Humidade
    00:00 +13°C° 0 mm 2 m/s 763 mmHg 83%
    01:00 +13°C° 0 mm 2 m/s 763 mmHg 84%
    02:00 +12°C° 0 mm 2 m/s 763 mmHg 85%
    03:00 +12°C° 0 mm 2 m/s 763 mmHg 85%
    04:00 +12°C° 0 mm 2 m/s 763 mmHg 85%
    05:00 +12°C° 0 mm 2 m/s 763 mmHg 86%
    06:00 +13°C° 0 mm 2 m/s 763 mmHg 80%
    07:00 +15°C° 0 mm 2 m/s 763 mmHg 74%
    08:00 +17°C° 0 mm 2 m/s 763 mmHg 69%
    09:00 +19°C° 0 mm 2 m/s 763 mmHg 63%
    10:00 +20°C° 0 mm 2 m/s 763 mmHg 57%
    11:00 +21°C° 0 mm 2 m/s 763 mmHg 51%
    12:00 +23°C° 0 mm 2 m/s 763 mmHg 49%
    13:00 +24°C° 0 mm 2 m/s 763 mmHg 47%
    14:00 +24°C° 0 mm 2 m/s 762 mmHg 45%
    15:00 +24°C° 0 mm 2 m/s 762 mmHg 47%
    16:00 +24°C° 0 mm 2 m/s 762 mmHg 48%
    17:00 +24°C° 0 mm 2 m/s 762 mmHg 49%
    18:00 +21°C° 0 mm 2 m/s 762 mmHg 56%
    19:00 +21°C° 0 mm 1 m/s 762 mmHg 63%
    20:00 +19°C° 0 mm 1 m/s 762 mmHg 71%
    21:00 +18°C° 0 mm 1 m/s 762 mmHg 73%
    22:00 +16°C° 0 mm 1 m/s 762 mmHg 75%
    23:00 +14°C° 0 mm 1 m/s 762 mmHg 77%

    28 Maio, Segunda-feira

    Tempo Temperatura Precipitação Vento Pressão Humidade
    00:00 +14°C° 0 mm 1 m/s 762 mmHg 79%
    01:00 +13°C° 0 mm 1 m/s 762 mmHg 80%
    02:00 +13°C° 0 mm 1 m/s 763 mmHg 82%
    03:00 +13°C° 0 mm 1 m/s 763 mmHg 82%
    04:00 +13°C° 0 mm 1 m/s 763 mmHg 82%
    05:00 +13°C° 0 mm 1 m/s 763 mmHg 82%
    06:00 +15°C° 0 mm 1 m/s 763 mmHg 76%
    07:00 +18°C° 0 mm 1 m/s 763 mmHg 69%
    08:00 +21°C° 0 mm 1 m/s 763 mmHg 63%
    09:00 +21°C° 0 mm 2 m/s 763 mmHg 59%
    10:00 +23°C° 0 mm 2 m/s 763 mmHg 54%
    11:00 +25°C° 0 mm 2 m/s 763 mmHg 50%
    12:00 +25°C° 0 mm 2 m/s 763 mmHg 50%
    13:00 +25°C° 0 mm 2 m/s 763 mmHg 50%
    14:00 +26°C° 0 mm 2 m/s 763 mmHg 50%
    15:00 +26°C° 0 mm 2 m/s 762 mmHg 52%
    16:00 +26°C° 0 mm 2 m/s 762 mmHg 53%
    17:00 +26°C° 0 mm 2 m/s 762 mmHg 54%
    18:00 +24°C° 0 mm 2 m/s 762 mmHg 61%
    19:00 +23°C° 0 mm 2 m/s 762 mmHg 68%
    20:00 +21°C° 0 mm 1 m/s 762 mmHg 74%
    21:00 +20°C° 0 mm 1 m/s 762 mmHg 77%
    22:00 +19°C° 0 mm 1 m/s 762 mmHg 80%
    23:00 +18°C° 0 mm 1 m/s 763 mmHg 83%
    Mostrar mais